Temperature
8 8 9 9 9 9 10 9 10 9 9 9 9 9 9 9 9 9 9 9 10 10 10 10 10 10 10 10 10 9 9 9 9 9 9 9 9 9 9 9 9 9 9
7 8 8 9 9 9 9 9 9 9 9 9 9 9 9 9 9 9 9 9 9 9 9 9 9 9 9 9 9 9 9 9 9 9 8 8 8 9 9 9 9 9 9
7 7 7 8 8 8 9 9 9 9 9 9 9 9 8 8 8 8 9 9 9 9 9 9 9 9 9 9 9 9 9 9 8 8 8 8 9 8 8 9 9 9 9
6 6 6 7 7 8 8 8 8 8 8 8 8 8 8 8 8 8 8 8 8 8 8 8 8 8 8 8 8 8 8 8 8 8 8 8 8 8 8 8 8 8 8
5 5 5 6 7 7 8 8 8 8 8 8 8 8 8 8 8 8 8 8 8 8 8 8 8 8 8 8 8 8 8 8 8 8 8 8 8 8 8 7 8 8 8
4 4 5 5 6 6 7 7 7 7 7 8 8 8 8 7 7 8 8 7 7 7 7 7 7 7 7 7 7 8 8 8 8 8 7 7 7 7 7 7 7 7 7
3 3 4 5 5 5 6 6 6 7 7 7 7 7 7 7 7 7 7 7 7 7 7 7 7 7 7 7 7 7 7 7 7 7 7 7 7 7 7 7 7 7 7
2 3 3 4 4 5 5 5 6 6 6 7 7 7 7 6 7 7 7 7 7 7 7 7 7 7 7 7 7 7 7 7 7 7 7 7 7 7 7 7 6 6 6
1 2 2 3 3 4 4 4 5 5 6 6 6 6 6 6 6 6 6 6 6 6 6 6 6 6 6 6 7 7 7 7 7 7 6 6 6 6 6 6 6 6 6
1 1 2 2 2 3 3 4 4 4 5 5 5 5 5 5 6 6 6 6 6 6 6 6 6 6 6 6 6 6 6 6 6 6 6 6 6 6 6 6 6 6 6
0 0 1 1 2 2 3 3 3 4 4 4 4 5 5 5 5 5 5 5 5 5 5 5 5 5 5 6 6 6 6 6 6 6 6 6 6 6 6 6 5 5 5
-0 -0 -0 0 1 1 2 2 2 3 3 4 4 4 4 4 4 4 5 5 5 5 5 5 5 5 5 5 5 5 5 5 5 5 5 5 5 5 5 5 5 5 5
-1 -1 -1 -1 -0 0 1 1 2 2 3 3 3 3 3 3 4 4 4 4 4 4 4 4 4 4 4 4 4 5 5 5 5 5 5 5 5 5 5 5 5 5 4
-2 -2 -2 -2 -1 -1 0 0 1 1 2 2 3 3 3 3 3 3 3 4 4 4 4 4 4 4 4 4 4 4 4 4 4 4 4 4 4 4 4 4 4 4 4
-3 -3 -2 -2 -2 -1 -1 -0 0 0 1 1 2 2 2 2 2 3 3 3 3 3 3 3 3 3 3 3 3 3 3 4 4 4 4 4 4 4 4 4 4 4 4
-4 -4 -3 -3 -3 -2 -2 -1 -1 -0 0 0 1 1 1 2 2 2 2 3 3 3 3 3 3 3 3 3 3 3 3 3 3 3 3 3 3 3 3 3 3 3 3
-5 -5 -4 -4 -3 -3 -2 -2 -1 -1 -1 -0 0 0 1 1 1 2 2 2 2 2 2 2 2 2 2 2 2 2 2 2 2 2 3 2 2 2 3 3 3 3 2
-6 -5 -5 -4 -4 -3 -3 -2 -2 -1 -1 -1 -1 -0 -0 0 1 1 1 1 1 1 1 1 1 2 2 2 2 2 2 2 2 2 2 2 2 2 2 2 2 2 2
-6 -6 -5 -5 -4 -4 -3 -3 -2 -2 -1 -1 -1 -1 -1 -0 -0 0 0 0 1 1 1 1 1 1 1 1 1 1 1 1 1 1 1 1 1 1 1 1 1 1 1
-6 -6 -5 -5 -5 -4 -4 -3 -3 -2 -2 -2 -1 -1 -1 -1 -1 -0 -0 -0 -0 0 0 0 0 0 0 1 1 1 1 1 1 1 1 1 1 1 1 1 1 1 1
-6 -6 -6 -5 -5 -5 -4 -4 -3 -3 -3 -2 -2 -2 -2 -1 -1 -1 -1 -1 -1 -1 -1 -1 -0 -0 -0 -0 0 0 0 0 0 0 0 0 0 0 0 0 0 0 0
-6 -6 -6 -6 -5 -5 -5 -4 -4 -4 -3 -3 -3 -2 -2 -2 -2 -2 -1 -1 -1 -1 -1 -1 -1 -1 -1 -1 -0 -0 -0 -0 -0 -0 -0 -0 -0 -0 -0 -0 -0 -0 -0
-7 -7 -7 -6 -6 -5 -5 -5 -4 -4 -4 -3 -3 -3 -3 -2 -2 -2 -2 -2 -2 -2 -2 -2 -2 -2 -1 -1 -1 -1 -1 -1 -1 -1 -1 -1 -1 -1 -1 -1 -1 -1 -1
-8 -7 -7 -7 -6 -6 -5 -5 -5 -5 -4 -4 -4 -3 -3 -3 -3 -3 -3 -3 -3 -3 -2 -2 -2 -2 -2 -2 -2 -1 -1 -1 -1 -1 -1 -1 -1 -1 -1 -1 -1 -1 -1
-8 -8 -8 -7 -7 -6 -6 -5 -5 -5 -5 -5 -4 -4 -4 -4 -4 -3 -3 -3 -3 -3 -3 -3 -3 -2 -2 -2 -2 -2 -2 -2 -2 -2 -2 -2 -2 -2 -2 -2 -2 -2 -2
-8 -8 -8 -8 -7 -7 -6 -6 -6 -6 -5 -5 -5 -5 -4 -4 -4 -4 -4 -4 -4 -4 -3 -3 -3 -3 -3 -3 -3 -3 -2 -2 -2 -2 -2 -2 -3 -3 -3 -3 -3 -3 -3
Wind_Speed
5 3 2 2 3 3 4 5 5 5 5 4 4 4 4 3 3 3 4 4 4 5 4 3 4 4 3 4 4 4 5 3 3 3 2 1 2 2 2 2 3 3 4
4 3 2 1 3 3 4 5 5 6 6 5 5 4 4 3 3 3 4 5 5 5 4 4 4 4 4 4 4 4 4 3 3 3 3 2 3 3 2 2 3 3 2
4 3 2 2 2 3 4 4 5 6 6 5 4 4 4 3 3 3 3 4 5 5 5 5 5 5 5 5 5 5 5 4 4 3 3 3 3 2 3 3 3 3 2
4 3 3 3 3 3 3 4 4 5 6 6 5 6 5 4 4 4 4 4 5 5 5 5 5 5 5 5 5 5 5 5 5 3 2 2 1 2 2 3 4 4 3
5 4 4 3 3 2 2 2 3 4 6 6 6 6 5 4 3 4 4 4 3 4 4 4 5 5 4 5 6 6 6 6 6 5 3 3 2 3 3 3 3 3 3
6 6 6 5 4 3 1 1 2 3 5 6 6 6 6 5 4 4 4 4 3 3 4 4 4 5 4 5 6 6 7 6 7 6 5 5 4 5 4 5 4 4 3
7 7 7 6 5 4 3 2 1 2 3 4 5 5 5 5 5 5 5 4 3 3 4 4 4 4 5 5 6 6 6 7 7 7 6 6 6 4 5 5 4 4 3
8 8 7 7 5 4 4 3 2 2 2 3 3 3 4 4 4 4 4 4 4 4 4 4 4 5 5 5 6 5 6 6 7 7 7 6 6 5 5 5 4 4 4
9 9 9 8 7 5 4 3 3 2 1 1 2 2 3 3 3 4 4 4 4 3 4 5 5 5 5 5 5 5 6 6 6 7 7 7 6 5 5 5 6 6 5
10 10 9 9 7 6 5 4 3 2 2 1 1 1 2 3 3 3 4 4 4 4 5 5 5 5 5 5 5 5 5 6 5 5 7 7 5 5 5 5 5 6 6
11 10 10 9 8 7 6 5 4 3 3 2 1 2 2 2 2 3 3 3 3 4 4 5 5 5 5 5 6 6 6 6 6 5 7 8 7 6 6 6 6 6 6
10 10 10 10 8 8 7 6 5 4 4 3 2 2 2 2 2 2 3 3 3 4 4 4 5 5 5 6 6 6 6 6 6 6 6 7 6 7 6 6 7 6 6
11 11 10 10 9 8 7 7 6 5 5 3 2 2 2 2 2 2 2 3 3 3 3 4 4 5 6 6 6 6 7 7 7 7 7 7 7 8 6 7 7 6 5
11 11 11 11 10 9 8 7 7 6 5 4 3 2 3 3 3 3 2 3 3 3 4 4 5 5 6 6 6 6 7 6 6 6 7 7 7 8 7 7 7 6 6
13 13 12 11 11 10 9 8 7 7 6 4 3 3 3 3 3 3 3 3 3 3 4 4 4 5 5 5 6 6 6 6 6 6 6 7 7 7 7 6 6 6 6
15 14 14 13 12 11 10 8 7 7 6 5 4 4 3 3 3 3 3 2 3 3 3 4 4 4 4 5 6 6 6 6 6 6 6 5 6 7 7 7 7 7 7
16 15 14 13 12 11 10 9 8 6 5 5 4 4 4 3 3 3 3 3 3 3 4 4 4 4 4 4 5 6 5 5 5 5 5 4 4 6 6 6 6 6 6
16 16 15 14 13 11 10 9 7 6 5 5 4 4 4 4 3 3 4 4 3 3 4 4 4 4 4 4 5 5 5 4 5 5 5 5 5 5 5 4 5 5 5
16 15 15 14 12 11 10 9 7 6 5 5 5 5 4 4 4 4 4 4 3 3 3 4 4 4 4 4 5 4 3 4 4 4 4 5 5 5 5 5 4 3 3
15 15 14 13 11 10 9 8 7 6 6 6 6 5 5 4 4 4 4 3 3 3 3 3 4 4 4 4 4 4 3 3 3 3 4 4 5 5 6 5 5 5 3
16 15 14 12 10 10 8 8 7 7 7 6 6 5 5 4 4 4 3 3 3 3 3 3 3 3 4 4 5 5 3 3 3 3 3 3 4 4 4 5 4 4 3
15 14 12 11 10 9 8 8 8 8 7 6 6 5 5 4 3 3 3 3 2 2 2 2 3 3 3 3 4 5 4 4 4 4 3 3 3 3 4 3 3 3 3
14 13 13 12 10 9 8 8 9 8 7 6 6 5 4 3 3 2 2 2 2 2 2 2 2 2 2 2 2 4 4 4 4 3 3 2 2 2 2 3 3 3 2
14 13 13 12 11 10 9 8 9 8 6 6 6 5 4 3 3 2 2 2 2 2 2 2 2 2 2 2 2 2 2 3 2 2 2 3 2 2 2 2 2 1 2
13 12 12 12 11 11 10 9 9 8 7 6 5 4 3 3 2 2 2 3 3 3 3 2 2 2 3 3 3 2 2 2 2 2 2 2 2 2 1 1 1 1 2
13 12 12 11 11 11 10 10 9 8 7 5 5 4 3 3 2 2 3 4 3 4 4 3 3 2 2 1 1 1 1 2 4 3 2 2 2 2 2 2 1 1 1
Wind_Direction
283 284 273 239 218 211 208 208 204 201 195 195 194 191 195 196 193 192 190 190 187 186 184 184 186 192 198 197 187 178 169 173 170 173 178 191 211 218 220 218 215 209 216
304 300 283 253 224 219 214 210 207 201 201 201 196 194 189 199 199 194 192 194 190 187 186 187 191 194 197 195 189 182 184 182 185 190 191 200 208 213 220 226 222 221 219
302 304 293 274 241 230 223 215 210 206 204 195 184 178 176 184 192 197 200 205 199 194 190 193 194 196 198 199 196 197 196 192 195 208 208 203 216 209 203 220 227 228 223
327 321 313 299 287 259 238 225 213 207 199 188 186 185 194 202 208 200 198 201 204 203 198 198 200 201 205 205 202 203 205 200 199 203 232 257 240 210 201 205 218 227 230
350 348 340 324 312 292 252 231 214 212 198 193 191 192 203 208 199 192 191 194 198 199 201 203 202 206 211 213 208 205 206 206 207 205 206 218 236 240 228 225 220 227 229
358 357 355 355 353 346 321 259 208 218 203 197 197 198 202 200 194 191 192 193 195 198 202 204 208 210 212 214 213 212 210 211 210 211 212 214 215 216 225 232 232 238 244
1 359 358 356 359 358 351 329 271 238 208 198 201 206 207 205 204 203 201 200 204 206 206 204 210 211 213 213 212 215 216 215 213 215 220 224 229 225 228 231 235 249 261
2 357 352 349 351 351 347 346 324 292 228 203 207 214 212 209 210 212 213 213 213 217 212 206 207 210 211 212 212 217 220 220 219 221 223 225 228 225 226 227 228 238 248
357 354 350 347 346 347 344 335 325 316 269 219 211 217 221 219 217 217 217 219 218 220 215 213 211 211 211 212 215 220 219 221 224 223 224 226 226 226 228 227 226 230 244
349 350 349 346 343 341 338 336 329 321 306 275 239 228 225 223 218 217 221 221 219 216 216 217 215 215 214 214 215 221 221 220 225 224 224 225 224 222 221 222 229 233 241
348 346 344 342 342 343 344 343 342 340 332 305 274 248 241 232 226 223 228 228 225 221 220 219 218 218 218 218 218 221 218 220 223 223 226 227 226 223 223 221 226 230 233
349 346 345 346 347 347 346 345 343 339 328 310 293 272 261 247 239 238 238 236 234 231 228 225 223 225 223 223 222 223 223 223 223 226 228 231 224 223 224 221 224 227 231
350 349 348 347 345 344 344 343 341 337 331 320 303 291 283 268 260 255 251 244 240 237 233 229 228 229 227 226 227 227 227 229 229 227 227 229 224 224 224 225 226 226 227
347 346 344 343 342 340 339 338 338 337 330 322 312 295 292 285 273 269 261 255 248 241 238 237 236 236 235 231 228 228 228 230 232 231 229 228 225 227 225 227 228 225 223
344 342 340 339 337 335 334 334 333 333 331 326 319 304 302 297 280 271 269 265 261 257 248 244 244 243 238 234 231 228 230 232 234 236 236 235 231 232 230 229 228 223 224
338 336 335 335 334 329 327 328 328 327 325 323 316 309 305 301 291 277 272 269 269 269 261 249 246 249 245 232 235 234 233 234 234 236 240 242 232 227 226 228 232 230 227
335 332 330 327 327 326 322 322 320 319 319 319 317 311 305 297 295 291 271 258 259 259 259 258 252 253 250 232 233 233 236 238 240 239 238 241 239 230 224 221 222 232 238
333 330 326 323 321 322 322 320 318 317 318 319 317 314 305 294 292 288 277 267 264 262 262 260 258 256 256 244 239 235 235 236 239 239 235 233 235 229 221 221 222 230 238
327 325 322 318 317 321 321 321 320 318 317 317 316 312 303 295 287 282 283 281 270 266 264 260 258 254 256 246 241 238 233 228 234 236 236 231 233 222 213 209 214 222 245
327 326 325 322 321 322 322 322 319 316 313 311 311 309 303 294 284 283 285 287 274 268 269 266 260 254 254 245 240 236 229 226 229 234 235 230 229 222 214 212 211 218 227
324 325 324 324 323 324 323 322 322 313 311 311 311 309 305 297 288 289 288 280 273 269 264 266 270 263 256 247 238 232 228 224 225 229 237 235 214 219 222 228 228 223 216
326 328 327 325 325 327 326 321 322 318 315 314 312 310 308 303 293 290 293 282 263 257 264 268 277 278 268 253 232 224 231 228 224 231 237 230 206 214 221 225 207 192 191
325 327 326 324 325 326 324 319 320 321 319 319 316 312 312 308 302 292 291 290 273 265 264 260 265 282 284 263 233 223 226 227 232 231 220 210 194 203 209 190 183 182 181
324 325 325 325 324 325 322 318 319 320 316 314 312 310 310 312 314 307 297 291 281 269 265 265 266 271 276 272 255 237 229 214 217 208 170 150 130 132 123 136 161 178 175
322 323 323 322 321 323 323 322 322 321 314 307 306 307 310 311 311 314 309 299 288 276 263 259 261 260 266 270 260 243 225 199 177 154 141 135 132 133 125 110 98 106 123
321 322 322 322 322 323 322 323 323 321 312 306 306 307 310 310 306 318 331 339 324 326 318 299 278 284 295 297 284 244 155 144 154 147 152 157 156 158 157 146 129 118 129
Height
1488 1488 1488 1488 1489 1491 1492 1493 1494 1496 1497 1498 1499 1500 1501 1502 1504 1505 1507 1508 1510 1511 1512 1513 1515 1516 1517 1518 1520 1521 1522 1524 1525 1527 1528 1529 1530 1531 1532 1533 1534 1535 1536
1485 1485 1485 1485 1486 1487 1489 1490 1491 1492 1494 1495 1496 1497 1498 1499 1501 1502 1504 1505 1507 1508 1509 1511 1512 1513 1514 1516 1517 1518 1520 1521 1523 1525 1526 1528 1530 1528 1529 1530 1531 1533 1533
1484 1483 1482 1483 1483 1484 1485 1486 1488 1489 1490 1492 1493 1495 1496 1497 1498 1499 1501 1503 1504 1505 1507 1508 1509 1510 1512 1513 1514 1516 1517 1518 1520 1522 1524 1525 1526 1526 1526 1527 1528 1529 1530
1482 1481 1480 1480 1480 1482 1483 1484 1485 1486 1487 1489 1490 1491 1492 1494 1495 1496 1498 1500 1501 1502 1504 1505 1506 1507 1509 1510 1511 1513 1514 1516 1517 1519 1520 1522 1522 1524 1524 1525 1525 1526 1527
1481 1480 1479 1479 1479 1479 1480 1481 1482 1483 1484 1486 1487 1489 1490 1492 1493 1494 1495 1496 1498 1499 1500 1502 1503 1504 1505 1507 1508 1510 1511 1512 1514 1516 1517 1518 1519 1520 1521 1521 1522 1523 1524
1481 1480 1478 1478 1477 1477 1477 1478 1479 1479 1481 1483 1484 1486 1487 1488 1490 1491 1492 1493 1494 1496 1497 1498 1500 1501 1502 1503 1505 1506 1508 1509 1510 1512 1513 1515 1516 1517 1518 1518 1519 1520 1520
1481 1479 1477 1476 1475 1475 1475 1475 1476 1477 1478 1480 1481 1483 1484 1485 1486 1487 1489 1490 1491 1492 1493 1494 1496 1497 1499 1500 1501 1503 1504 1505 1506 1508 1509 1511 1512 1513 1514 1515 1515 1516 1516
1481 1479 1477 1476 1475 1474 1473 1473 1473 1474 1475 1476 1478 1479 1481 1482 1483 1484 1485 1486 1487 1488 1490 1491 1492 1494 1495 1496 1498 1499 1500 1501 1502 1504 1505 1506 1507 1509 1510 1511 1512 1512 1513
1482 1479 1477 1475 1474 1472 1471 1471 1471 1471 1472 1473 1475 1476 1477 1478 1479 1481 1482 1483 1484 1485 1486 1487 1488 1490 1491 1492 1494 1494 1496 1497 1498 1499 1501 1502 1503 1504 1505 1506 1507 1509 1509
1482 1479 1477 1475 1473 1472 1471 1470 1470 1469 1470 1471 1472 1473 1474 1475 1476 1477 1478 1479 1480 1481 1482 1483 1484 1486 1487 1488 1489 1490 1491 1493 1494 1495 1496 1497 1498 1499 1500 1501 1503 1504 1505
1483 1480 1477 1474 1472 1471 1469 1468 1467 1467 1467 1468 1469 1470 1471 1472 1473 1474 1475 1476 1477 1477 1478 1479 1480 1481 1482 1484 1485 1486 1487 1488 1489 1490 1491 1492 1494 1494 1495 1496 1498 1498 1500
1483 1480 1477 1474 1471 1469 1467 1466 1465 1465 1465 1466 1466 1467 1468 1469 1470 1470 1471 1472 1473 1474 1474 1475 1476 1477 1478 1479 1481 1481 1482 1483 1484 1485 1486 1487 1488 1489 1490 1491 1492 1493 1494
1483 1480 1476 1473 1470 1468 1466 1464 1464 1463 1463 1463 1464 1464 1465 1466 1466 1467 1468 1469 1470 1471 1471 1472 1472 1473 1474 1475 1476 1477 1478 1479 1479 1480 1481 1482 1483 1484 1485 1486 1487 1488 1489
1484 1480 1476 1473 1470 1467 1465 1464 1462 1462 1461 1461 1461 1461 1462 1463 1464 1464 1465 1466 1466 1467 1468 1468 1469 1469 1470 1471 1472 1473 1474 1474 1475 1476 1476 1477 1478 1479 1479 1480 1482 1483 1484
1483 1480 1476 1473 1469 1466 1464 1462 1461 1460 1459 1458 1458 1458 1459 1460 1460 1461 1462 1462 1463 1464 1464 1465 1465 1466 1466 1467 1467 1468 1469 1470 1470 1471 1471 1472 1473 1473 1474 1475 1476 1478 1479
1483 1479 1476 1472 1468 1465 1463 1461 1459 1458 1457 1456 1456 1456 1456 1456 1457 1458 1458 1459 1459 1460 1460 1461 1461 1462 1462 1463 1463 1464 1464 1465 1466 1466 1467 1467 1468 1469 1469 1470 1471 1473 1474
1483 1479 1475 1471 1467 1464 1462 1459 1458 1456 1455 1454 1454 1453 1453 1453 1454 1455 1455 1455 1456 1456 1456 1456 1457 1457 1458 1459 1459 1460 1460 1461 1461 1462 1462 1463 1463 1464 1465 1466 1467 1467 1468
1482 1477 1473 1469 1466 1462 1460 1458 1456 1454 1453 1452 1451 1451 1451 1451 1451 1451 1452 1452 1452 1452 1452 1452 1453 1453 1454 1455 1455 1456 1456 1456 1457 1457 1458 1459 1459 1460 1461 1461 1462 1463 1463
1482 1477 1472 1467 1464 1460 1458 1455 1453 1452 1451 1450 1449 1448 1448 1448 1448 1448 1448 1448 1448 1448 1449 1449 1449 1449 1450 1450 1451 1452 1452 1452 1452 1453 1454 1455 1455 1456 1457 1458 1458 1458 1459
1479 1474 1470 1465 1461 1458 1455 1453 1451 1449 1448 1447 1447 1446 1446 1445 1445 1445 1445 1445 1445 1445 1445 1445 1445 1445 1446 1446 1447 1448 1448 1448 1449 1449 1450 1451 1451 1452 1453 1454 1454 1455 1456
1477 1472 1468 1463 1460 1456 1454 1451 1449 1447 1446 1445 1445 1444 1443 1443 1442 1442 1442 1442 1442 1442 1441 1441 1441 1442 1442 1442 1443 1443 1444 1444 1445 1445 1446 1447 1448 1449 1449 1450 1451 1451 1452
1474 1470 1465 1461 1458 1455 1452 1449 1447 1446 1445 1443 1442 1442 1441 1441 1440 1440 1439 1439 1439 1439 1438 1438 1438 1438 1438 1438 1439 1440 1441 1441 1442 1442 1443 1444 1444 1445 1446 1447 1447 1448 1449
1472 1468 1464 1459 1456 1453 1451 1448 1446 1444 1443 1441 1440 1439 1439 1438 1438 1437 1437 1436 1436 1436 1436 1435 1435 1435 1435 1435 1436 1436 1437 1438 1438 1439 1440 1440 1441 1442 1442 1443 1444 1445 1445
1470 1466 1462 1457 1454 1451 1449 1447 1445 1443 1441 1439 1438 1437 1436 1436 1435 1435 1435 1434 1434 1433 1433 1433 1433 1433 1433 1433 1433 1433 1434 1435 1435 1436 1436 1437 1438 1438 1439 1440 1441 1441 1442
1468 1464 1460 1456 1453 1450 1447 1445 1443 1441 1439 1437 1436 1435 1434 1433 1433 1432 1432 1432 1432 1432 1431 1431 1431 1431 1430 1430 1431 1431 1431 1431 1432 1433 1433 1434 1434 1435 1436 1437 1438 1439 1440
1466 1462 1458 1454 1451 1448 1445 1443 1441 1439 1437 1435 1434 1433 1432 1431 1430 1430 1429 1429 1430 1429 1429 1429 1429 1428 1429 1428 1428 1428 1428 1429 1429 1430 1430 1431 1432 1433 1434 1434 1435 1436 1437